Regional Weather Roundup
Issued by NWS Little Rock, AR

Home | Current Version | Previous Version | Graphics & Text | Print | Product List | Glossary On
Versions: 1 2 3 4 5 6 7 8 9 10 11 12 13 14 15 16 17 18 19 20 21 22 23 24 25 26 27 28 29 30 31 32 33 34 35 36 37 38 39 40 41 42 43 44 45 46 47 48 49 50
000
ASUS44 KLZK 281505
RWRLZK

WEATHER ROUNDUP FOR ARKANSAS
NATIONAL WEATHER SERVICE LITTLE ROCK AR
900 AM CST FRI NOV 28 2014

NOTE: "FAIR" INDICATES FEW OR NO CLOUDS BELOW 12,000 FEET WITH NO
SIGNIFICANT WEATHER AND/OR OBSTRUCTIONS TO VISIBILITY.

ARZ001-003-010-029-281600-
NORTHWEST ARKANSAS

CITY           SKY/WX    TMP DP  RH WIND       PRES   REMARKS
FAYETTEVILLE   SUNNY     44  29  55 S14G21    30.18S
FORT SMITH     SUNNY     38  31  76 E8        30.25F
HARRISON       SUNNY     41  29  62 S17G24    30.19F
BENTONVILLE    SUNNY     45  27  49 S10       30.16F
ROGERS         SUNNY     47  28  47 S20G29    30.16S
SILOAM SPGS      N/A     46  27  46 S15G21    30.17S
HIGHFILL       SUNNY     46  29  51 S16G23    30.15F
SPRINGDALE     SUNNY     46  28  49 S14G21    30.18S
$$

ARZ004-005-016-281600-
NORTH CENTRAL ARKANSAS

CITY           SKY/WX    TMP DP  RH WIND       PRES   REMARKS
BATESVILLE     SUNNY     39  28  65 S8        30.32F
FLIPPIN        SUNNY     41  28  60 S8        30.23F
MTN HOME         N/A    N/A N/A N/A MISG      30.22F
$$

ARZ040-041-281600-
WEST CENTRAL ARKANSAS

CITY           SKY/WX    TMP DP  RH WIND       PRES   REMARKS
MENA           SUNNY     46  32  57 SW6       30.28F
MOUNT IDA      SUNNY     44  31  60 VRB6      30.28S
$$

ARZ009-017-025-026-028-281600-
NORTHEAST ARKANSAS

CITY           SKY/WX    TMP DP  RH WIND       PRES   REMARKS
CORNING        FAIR      37  32  81 S12       30.34S
JONESBORO      SUNNY     35  31  85 S15G21    30.36F WCI  25
NEWPORT        SUNNY     38  33  82 S15       30.36F
WALNUT RIDGE   SUNNY     36  28  75 S14       30.34S
BLYTHEVILLE    SUNNY     44  28  53 S12       30.38F
$$

ARZ022-023-033-042-044-281600-
CENTRAL ARKANSAS

CITY           SKY/WX    TMP DP  RH WIND       PRES   REMARKS
LITTLE ROCK    SUNNY     39  31  72 S6        30.37F
N LITTLE ROCK  SUNNY     38  33  79 S12G18    30.37F
JACKSONVILLE   SUNNY     35  31  83 CALM      30.36F
SEARCY         SUNNY     36  34  92 S8        30.38S
HOT SPRINGS    SUNNY     42  32  67 S7        30.34F
RUSSELLVILLE   SUNNY     39  31  72 VRB5      30.31F
CLINTON        FAIR      32  32 100 CALM      30.35F FOG
$$

ARZ036-281600-
EAST ARKANSAS

CITY           SKY/WX    TMP DP  RH WIND       PRES   REMARKS
WEST MEMPHIS   SUNNY     37  30  75 S13       30.40S
$$

ARZ050-053-066-070-073-281600-
SOUTHWEST ARKANSAS

CITY           SKY/WX    TMP DP  RH WIND       PRES   REMARKS
ARKADELPHIA    FAIR      36  33  88 CALM      30.37S
CAMDEN         SUNNY     37  32  81 MISG      30.37F
TEXARKANA      SUNNY     42  33  70 S12       30.34F
EL DORADO      SUNNY     39  33  79 S13       30.37F
DE QUEEN       SUNNY     39  35  86 E6        30.32F
$$

ARZ056-057-069-281600-
SOUTHEAST ARKANSAS

CITY           SKY/WX    TMP DP  RH WIND       PRES   REMARKS
PINE BLUFF     SUNNY     39  32  76 S8        30.38S
STUTTGART        N/A     41  32  70 S14       30.38F VSB 1/2
MONTICELLO     SUNNY     40  31  70 S9G18     30.39S

$$




USA.gov is the U.S. government's official web portal to all federal, state and local government web resources and services.